This demonstration page uses our WeatherBlox Daily Observations layout. Learn more.

Left ArrowRight Arrow

39.29038, -76.61219

Hourly Observations for November 22, 2018

Temp ( °F °C ) Dew Point ( °F °C ) Humidity (%) Winds ( mph kmh ) Pressure ( in mb ) Visibility ( mi km ) Precip ( " mm )
12:54 am 00:54 undefined 39 3.9 19 -7.2 45 45 undefined N/A 30.27 1025 N/A 0.00 0.00
1:54 am 01:54 undefined 37 2.8 16 -8.9 42 42 undefined N/A 30.29 1026 N/A 0.00 0.00
2:54 am 02:54 undefined 35 1.7 15 -9.4 44 44 undefined N/A 30.31 1026 N/A 0.00 0.00
3:54 am 03:54 undefined 33 0.6 15 -9.4 47 47 undefined N/A 30.33 1027 N/A 0.00 0.00
4:54 am 04:54 undefined 32 0 13 -10.6 45 45 undefined N/A 30.37 1028 N/A 0.00 0.00
5:54 am 05:54 undefined 30 -1.1 11 -11.7 45 45 undefined N/A 30.40 1030 N/A 0.00 0.00
6:54 am 06:54 undefined 30 -1.1 12 -11.1 47 47 undefined N/A 30.44 1031 N/A 0.00 0.00
7:54 am 07:54 undefined 29 -1.7 11 -11.7 47 47 undefined N/A 30.48 1032 N/A 0.00 0.00
8:54 am 08:54 undefined 30 -1.1 11 -11.7 45 45 undefined N/A 30.53 1034 N/A 0.00 0.00
9:54 am 09:54 undefined 30 -1.1 7 -13.9 38 38 undefined N/A 30.55 1035 N/A 0.00 0.00
10:54 am 10:54 undefined 30 -1.1 5 -15 34 34 undefined N/A 30.53 1034 N/A 0.00 0.00
11:54 am 11:54 undefined 30 -1.1 3 -16.1 31 31 undefined N/A 30.50 1033 N/A 0.00 0.00
12:54 pm 12:54 undefined 32 0 3 -16.1 29 29 undefined N/A 30.51 1033 N/A 0.00 0.00
1:54 pm 13:54 undefined 32 0 0 -17.8 25 25 undefined N/A 30.48 1032 N/A 0.00 0.00
2:54 pm 14:54 undefined 32 0 4 -15.6 30 30 undefined N/A 30.46 1032 N/A 0.00 0.00
3:54 pm 15:54 undefined 30 -1.1 2 -16.7 30 30 undefined N/A 30.49 1032 N/A 0.00 0.00
4:54 pm 16:54 undefined 31 -0.6 2 -16.7 29 29 undefined N/A 30.50 1033 N/A 0.00 0.00
5:54 pm 17:54 undefined 30 -1.1 5 -15 34 34 undefined N/A 30.53 1034 N/A 0.00 0.00
6:54 pm 18:54 undefined 29 -1.7 4 -15.6 34 34 undefined N/A 30.55 1035 N/A 0.00 0.00
7:54 pm 19:54 undefined 29 -1.7 4 -15.6 34 34 undefined N/A 30.57 1035 N/A 0.00 0.00
8:54 pm 20:54 undefined 28 -2.2 4 -15.6 35 35 undefined N/A 30.68 1039 N/A 0.00 0.00
9:54 pm 21:54 undefined 28 -2.2 2 -16.7 32 32 undefined N/A 30.55 1035 N/A 0.00 0.00
10:54 pm 22:54 undefined 27 -2.8 1 -17.2 32 32 undefined N/A 30.58 1036 N/A 0.00 0.00
11:54 pm 23:54 undefined 27 -2.8 3 -16.1 35 35 undefined N/A 30.65 1038 N/A 0.00 0.00

Powered by AerisWeather